Wetterdaten: Samstag, 07.03.2015
Datum Zeit Auen-Temp. Temp. -10 cm Luftfeuchte Luftfeuchte Luftdruck Regen Wind Richtung Richtung Taupunkt Windchill Windben
07.03.2015 00:00 -6,6 C 1,1 C 76 % 76 % 1035,6 hPa 0,0 l/m 0,0 km/h (0 Bft) N-NO 22 -10,1 C -7,7 C 0,0 km/h (0 Bft)
07.03.2015 00:05 -6,5 C 1,1 C 76 % 76 % 1035,6 hPa 0,0 l/m 0,0 km/h (0 Bft) O-SO 112 -10,0 C -7,6 C 0,0 km/h (0 Bft)
07.03.2015 00:10 -5,7 C 1,1 C 76 % 76 % 1035,6 hPa 0,0 l/m 0,0 km/h (0 Bft) W-NW 292 -9,2 C -7,2 C 0,0 km/h (0 Bft)
07.03.2015 00:15 -5,5 C 1,1 C 76 % 76 % 1034,4 hPa 0,0 l/m 0,2 km/h (0 Bft) N-NW 337 -9,0 C -6,8 C 0,0 km/h (0 Bft)
07.03.2015 00:20 -5,3 C 1,1 C 77 % 77 % 1034,4 hPa 0,0 l/m 0,2 km/h (0 Bft) N-NW 337 -8,7 C -6,5 C 0,0 km/h (0 Bft)
07.03.2015 00:25 -5,3 C 1,1 C 77 % 77 % 1034,4 hPa 0,0 l/m 0,0 km/h (0 Bft) SO 135 -8,7 C -6,5 C 0,0 km/h (0 Bft)
07.03.2015 00:30 -5,5 C 1,1 C 77 % 77 % 1034,4 hPa 0,0 l/m 0,0 km/h (0 Bft) O-SO 112 -8,9 C -6,4 C 0,0 km/h (0 Bft)
07.03.2015 00:35 -5,3 C 1,1 C 77 % 77 % 1034,8 hPa 0,0 l/m 0,0 km/h (0 Bft) O 90 -8,7 C -6,4 C 0,0 km/h (0 Bft)
07.03.2015 00:40 -5,3 C 1,1 C 77 % 77 % 1034,8 hPa 0,0 l/m 0,0 km/h (0 Bft) SO 135 -8,7 C -6,4 C 0,0 km/h (0 Bft)
07.03.2015 00:45 -5,2 C 1,1 C 77 % 77 % 1034,8 hPa 0,0 l/m 0,2 km/h (0 Bft) S 180 -8,6 C -6,4 C 3,1 km/h (1 Bft)
07.03.2015 00:50 -4,9 C 1,1 C 77 % 77 % 1034,8 hPa 0,0 l/m 1,0 km/h (0 Bft) O-NO 67 -8,3 C -6,1 C 4,0 km/h (1 Bft)
07.03.2015 00:55 -5,2 C 1,1 C 77 % 77 % 1034,6 hPa 0,0 l/m 1,0 km/h (0 Bft) S-SW 202 -8,6 C -6,2 C 1,8 km/h (1 Bft)
07.03.2015 01:00 -5,3 C 1,1 C 77 % 77 % 1034,6 hPa 0,0 l/m 0,0 km/h (0 Bft) O-NO 67 -8,7 C -6,4 C 0,0 km/h (0 Bft)
07.03.2015 01:05 -5,7 C 1,1 C 77 % 77 % 1034,6 hPa 0,0 l/m 0,0 km/h (0 Bft) NO 45 -9,1 C -6,5 C 0,0 km/h (0 Bft)
07.03.2015 01:10 -5,6 C 1,1 C 77 % 77 % 1034,6 hPa 0,0 l/m 0,0 km/h (0 Bft) W 270 -9,0 C -6,8 C 0,0 km/h (0 Bft)
07.03.2015 01:15 -5,6 C 1,1 C 77 % 77 % 1034,5 hPa 0,0 l/m 0,0 km/h (0 Bft) SW 225 -9,0 C -6,9 C 0,0 km/h (0 Bft)
07.03.2015 01:20 -6,0 C 1,1 C 77 % 77 % 1034,5 hPa 0,0 l/m 0,0 km/h (0 Bft) W-SW 247 -9,4 C -7,2 C 0,0 km/h (0 Bft)
07.03.2015 01:25 -6,1 C 1,1 C 77 % 77 % 1034,5 hPa 0,0 l/m 0,0 km/h (0 Bft) W-SW 247 -9,5 C -7,4 C 0,0 km/h (0 Bft)
07.03.2015 01:30 -6,5 C 1,1 C 77 % 77 % 1034,5 hPa 0,0 l/m 0,0 km/h (0 Bft) W-SW 247 -9,8 C -7,5 C 0,0 km/h (0 Bft)
07.03.2015 01:35 -6,4 C 1,1 C 77 % 77 % 1034,2 hPa 0,0 l/m 0,0 km/h (0 Bft) NW 315 -9,7 C -7,6 C 0,0 km/h (0 Bft)
07.03.2015 01:40 -6,8 C 1,1 C 77 % 77 % 1034,2 hPa 0,0 l/m 0,0 km/h (0 Bft) N-NW 337 -10,1 C -7,8 C 0,0 km/h (0 Bft)
07.03.2015 01:45 -7,0 C 1,1 C 77 % 77 % 1034,2 hPa 0,0 l/m 0,0 km/h (0 Bft) NO 45 -10,3 C -7,9 C 0,0 km/h (0 Bft)
07.03.2015 01:50 -6,6 C 1,1 C 77 % 77 % 1034,2 hPa 0,0 l/m 0,2 km/h (0 Bft) S-SW 202 -9,9 C -7,9 C 0,0 km/h (0 Bft)
07.03.2015 01:55 -6,4 C 1,1 C 77 % 77 % 1034,2 hPa 0,0 l/m 0,2 km/h (0 Bft) W-SW 247 -9,7 C -7,8 C 0,0 km/h (0 Bft)
07.03.2015 02:00 -6,6 C 1,1 C 77 % 77 % 1034,2 hPa 0,0 l/m 0,0 km/h (0 Bft) N-NW 337 -9,9 C -7,8 C 0,0 km/h (0 Bft)
07.03.2015 02:05 -6,8 C 1,1 C 77 % 77 % 1034,2 hPa 0,0 l/m 0,0 km/h (0 Bft) N-NO 22 -10,1 C -7,8 C 0,0 km/h (0 Bft)
07.03.2015 02:10 -6,9 C 1,1 C 77 % 77 % 1034,2 hPa 0,0 l/m 0,0 km/h (0 Bft) N 360 -10,2 C -7,9 C 0,0 km/h (0 Bft)
07.03.2015 02:15 -6,9 C 1,1 C 77 % 77 % 1034,2 hPa 0,0 l/m 0,0 km/h (0 Bft) SO 135 -10,2 C -8,0 C 0,0 km/h (0 Bft)
07.03.2015 02:20 -6,8 C 1,1 C 77 % 77 % 1034,2 hPa 0,0 l/m 0,0 km/h (0 Bft) O-NO 67 -10,1 C -8,0 C 0,0 km/h (0 Bft)
07.03.2015 02:25 -7,2 C 1,1 C 77 % 77 % 1034,2 hPa 0,0 l/m 0,0 km/h (0 Bft) O-NO 67 -10,5 C -8,1 C 0,0 km/h (0 Bft)
07.03.2015 02:30 -7,2 C 1,1 C 77 % 77 % 1034,2 hPa 0,0 l/m 0,0 km/h (0 Bft) NO 45 -10,5 C -8,2 C 0,0 km/h (0 Bft)
07.03.2015 02:35 -7,4 C 1,1 C 77 % 77 % 1034,2 hPa 0,0 l/m 0,0 km/h (0 Bft) O-NO 67 -10,7 C -8,2 C 0,0 km/h (0 Bft)
07.03.2015 02:40 -7,3 C 1,1 C 77 % 77 % 1034,2 hPa 0,0 l/m 0,0 km/h (0 Bft) O-NO 67 -10,6 C -8,3 C 0,0 km/h (0 Bft)
07.03.2015 02:45 -7,2 C 1,1 C 77 % 77 % 1034,2 hPa 0,0 l/m 0,0 km/h (0 Bft) O-NO 67 -10,5 C -8,3 C 0,0 km/h (0 Bft)
07.03.2015 02:50 -7,4 C 1,1 C 77 % 77 % 1034,2 hPa 0,0 l/m 0,0 km/h (0 Bft) O-NO 67 -10,7 C -8,4 C 0,0 km/h (0 Bft)
07.03.2015 02:55 -7,3 C 1,1 C 77 % 77 % 1033,9 hPa 0,0 l/m 0,0 km/h (0 Bft) SO 135 -10,6 C -8,3 C 0,0 km/h (0 Bft)
07.03.2015 03:00 -7,0 C 1,1 C 77 % 77 % 1033,9 hPa 0,0 l/m 0,0 km/h (0 Bft) S-SO 157 -10,3 C -8,2 C 0,0 km/h (0 Bft)
07.03.2015 03:05 -7,2 C 1,1 C 77 % 77 % 1033,9 hPa 0,0 l/m 0,0 km/h (0 Bft) S-SO 157 -10,5 C -8,2 C 0,0 km/h (0 Bft)
07.03.2015 03:10 -7,4 C 1,1 C 77 % 77 % 1033,9 hPa 0,0 l/m 0,0 km/h (0 Bft) S-SO 157 -10,7 C -8,2 C 0,0 km/h (0 Bft)
07.03.2015 03:15 -7,5 C 1,0 C 77 % 77 % 1033,8 hPa 0,0 l/m 0,0 km/h (0 Bft) S 180 -10,8 C -8,3 C 0,0 km/h (0 Bft)
07.03.2015 03:20 -7,8 C 1,0 C 77 % 77 % 1033,8 hPa 0,0 l/m 0,0 km/h (0 Bft) S 180 -11,1 C -8,4 C 0,0 km/h (0 Bft)
07.03.2015 03:25 -7,9 C 1,0 C 77 % 77 % 1033,8 hPa 0,0 l/m 0,0 km/h (0 Bft) S 180 -11,2 C -8,5 C 0,0 km/h (0 Bft)
07.03.2015 03:30 -7,8 C 1,0 C 77 % 77 % 1033,8 hPa 0,0 l/m 0,0 km/h (0 Bft) S-SW 202 -11,1 C -8,7 C 0,0 km/h (0 Bft)
07.03.2015 03:35 -7,7 C 1,0 C 77 % 77 % 1033,6 hPa 0,0 l/m 0,0 km/h (0 Bft) O-SO 112 -11,0 C -8,7 C 0,0 km/h (0 Bft)
07.03.2015 03:40 -7,2 C 1,0 C 77 % 77 % 1033,6 hPa 0,0 l/m 0,0 km/h (0 Bft) W-NW 292 -10,5 C -8,3 C 0,0 km/h (0 Bft)
07.03.2015 03:45 -7,6 C 1,0 C 77 % 77 % 1033,6 hPa 0,0 l/m 0,0 km/h (0 Bft) W 270 -10,9 C -8,4 C 0,0 km/h (0 Bft)
07.03.2015 03:50 -7,5 C 1,0 C 77 % 77 % 1033,6 hPa 0,0 l/m 0,0 km/h (0 Bft) N-NO 22 -10,8 C -8,3 C 0,0 km/h (0 Bft)
07.03.2015 03:55 -7,6 C 1,0 C 77 % 77 % 1033,3 hPa 0,0 l/m 0,0 km/h (0 Bft) N-NO 22 -10,9 C -8,3 C 0,0 km/h (0 Bft)
07.03.2015 04:00 -7,7 C 1,0 C 77 % 77 % 1033,3 hPa 0,0 l/m 0,0 km/h (0 Bft) O-NO 67 -11,0 C -8,3 C 0,0 km/h (0 Bft)
07.03.2015 04:05 -7,8 C 1,0 C 77 % 77 % 1033,3 hPa 0,0 l/m 0,0 km/h (0 Bft) N-NO 22 -11,1 C -8,3 C 0,0 km/h (0 Bft)
07.03.2015 04:10 -7,5 C 1,0 C 77 % 77 % 1033,3 hPa 0,0 l/m 0,0 km/h (0 Bft) O-NO 67 -10,8 C -8,2 C 0,0 km/h (0 Bft)
07.03.2015 04:15 -7,7 C 1,0 C 77 % 77 % 1033,9 hPa 0,0 l/m 0,0 km/h (0 Bft) O 90 -11,0 C -8,2 C 0,0 km/h (0 Bft)
07.03.2015 04:20 -7,5 C 1,0 C 78 % 78 % 1033,9 hPa 0,0 l/m 0,0 km/h (0 Bft) O-SO 112 -10,7 C -8,3 C 0,0 km/h (0 Bft)
07.03.2015 04:25 -7,5 C 1,0 C 78 % 78 % 1033,9 hPa 0,0 l/m 0,0 km/h (0 Bft) O-SO 112 -10,7 C -8,3 C 0,0 km/h (0 Bft)
07.03.2015 04:30 -7,8 C 1,0 C 77 % 77 % 1033,9 hPa 0,0 l/m 0,0 km/h (0 Bft) N-NO 22 -11,1 C -8,5 C 0,0 km/h (0 Bft)
07.03.2015 04:35 -8,0 C 1,0 C 77 % 77 % 1033,8 hPa 0,0 l/m 0,0 km/h (0 Bft) NO 45 -11,3 C -8,7 C 0,0 km/h (0 Bft)
07.03.2015 04:40 -7,9 C 1,0 C 77 % 77 % 1033,8 hPa 0,0 l/m 0,0 km/h (0 Bft) O-NO 67 -11,2 C -8,6 C 0,0 km/h (0 Bft)
07.03.2015 04:45 -7,9 C 1,0 C 77 % 77 % 1033,8 hPa 0,0 l/m 0,0 km/h (0 Bft) O 90 -11,2 C -8,7 C 0,0 km/h (0 Bft)
07.03.2015 04:50 -7,8 C 1,0 C 78 % 78 % 1033,8 hPa 0,0 l/m 0,0 km/h (0 Bft) W-NW 292 -10,9 C -8,6 C 0,0 km/h (0 Bft)
07.03.2015 04:55 -7,8 C 1,0 C 78 % 78 % 1033,8 hPa 0,0 l/m 0,0 km/h (0 Bft) W-NW 292 -10,9 C -8,9 C 0,0 km/h (0 Bft)
07.03.2015 05:00 -7,8 C 1,0 C 78 % 78 % 1033,8 hPa 0,0 l/m 0,0 km/h (0 Bft) N-NO 22 -10,9 C -9,0 C 0,0 km/h (0 Bft)
07.03.2015 05:05 -7,8 C 1,0 C 77 % 77 % 1033,8 hPa 0,0 l/m 0,0 km/h (0 Bft) W-NW 292 -11,1 C -8,9 C 0,0 km/h (0 Bft)
07.03.2015 05:10 -8,0 C 1,0 C 77 % 77 % 1033,8 hPa 0,0 l/m 0,0 km/h (0 Bft) O-NO 67 -11,3 C -9,0 C 0,0 km/h (0 Bft)
07.03.2015 05:15 -7,8 C 1,0 C 78 % 78 % 1033,9 hPa 0,0 l/m 0,0 km/h (0 Bft) N-NO 22 -10,9 C -8,7 C 0,0 km/h (0 Bft)
07.03.2015 05:20 -7,6 C 1,0 C 78 % 78 % 1033,9 hPa 0,0 l/m 0,0 km/h (0 Bft) O-NO 67 -10,8 C -8,7 C 0,0 km/h (0 Bft)
07.03.2015 05:25 -7,8 C 1,0 C 78 % 78 % 1033,9 hPa 0,0 l/m 0,0 km/h (0 Bft) O-NO 67 -10,9 C -8,6 C 0,0 km/h (0 Bft)
07.03.2015 05:30 -8,1 C 1,0 C 78 % 78 % 1033,9 hPa 0,0 l/m 0,0 km/h (0 Bft) SW 225 -11,2 C -9,0 C 0,0 km/h (0 Bft)
07.03.2015 05:35 -8,3 C 1,0 C 78 % 78 % 1033,7 hPa 0,0 l/m 0,0 km/h (0 Bft) S-SW 202 -11,4 C -9,1 C 0,0 km/h (0 Bft)
07.03.2015 05:40 -8,5 C 1,0 C 78 % 78 % 1033,7 hPa 0,0 l/m 0,0 km/h (0 Bft) S 180 -11,6 C -9,1 C 0,0 km/h (0 Bft)
07.03.2015 05:45 -8,4 C 1,0 C 78 % 78 % 1033,7 hPa 0,0 l/m 0,0 km/h (0 Bft) S-SW 202 -11,5 C -9,0 C 0,0 km/h (0 Bft)
07.03.2015 05:50 -8,3 C 1,0 C 78 % 78 % 1033,7 hPa 0,0 l/m 0,0 km/h (0 Bft) S-SO 157 -11,4 C -9,2 C 0,0 km/h (0 Bft)
07.03.2015 05:55 -8,3 C 1,0 C 78 % 78 % 1033,6 hPa 0,0 l/m 0,0 km/h (0 Bft) S-SO 157 -11,4 C -9,2 C 0,0 km/h (0 Bft)
07.03.2015 06:00 -8,5 C 1,0 C 78 % 78 % 1033,6 hPa 0,0 l/m 0,0 km/h (0 Bft) S 180 -11,6 C -9,2 C 0,0 km/h (0 Bft)
07.03.2015 06:05 -8,4 C 1,0 C 78 % 78 % 1033,6 hPa 0,0 l/m 0,0 km/h (0 Bft) S 180 -11,5 C -9,3 C 0,0 km/h (0 Bft)
07.03.2015 06:10 -7,8 C 1,0 C 78 % 78 % 1033,6 hPa 0,0 l/m 0,0 km/h (0 Bft) S 180 -10,9 C -9,2 C 0,0 km/h (0 Bft)
07.03.2015 06:15 -8,2 C 1,0 C 78 % 78 % 1033,7 hPa 0,0 l/m 0,0 km/h (0 Bft) SW 225 -11,3 C -9,1 C 0,0 km/h (0 Bft)
07.03.2015 06:20 -8,3 C 1,0 C 78 % 78 % 1033,7 hPa 0,0 l/m 0,0 km/h (0 Bft) SO 135 -11,4 C -9,2 C 0,0 km/h (0 Bft)
07.03.2015 06:25 -8,2 C 1,0 C 78 % 78 % 1033,7 hPa 0,0 l/m 0,0 km/h (0 Bft) SO 135 -11,3 C -9,1 C 0,0 km/h (0 Bft)
07.03.2015 06:30 -8,4 C 1,0 C 78 % 78 % 1033,7 hPa 0,0 l/m 0,0 km/h (0 Bft) SW 225 -11,5 C -9,2 C 0,0 km/h (0 Bft)
07.03.2015 06:35 -8,4 C 1,0 C 78 % 78 % 1033,6 hPa 0,0 l/m 0,0 km/h (0 Bft) S 180 -11,5 C -9,3 C 0,0 km/h (0 Bft)
07.03.2015 06:40 -8,5 C 1,0 C 78 % 78 % 1033,6 hPa 0,0 l/m 0,0 km/h (0 Bft) SW 225 -11,6 C -9,4 C 0,0 km/h (0 Bft)
07.03.2015 06:45 -8,3 C 1,0 C 78 % 78 % 1033,6 hPa 0,0 l/m 0,0 km/h (0 Bft) SW 225 -11,4 C -9,4 C 0,0 km/h (0 Bft)
07.03.2015 06:50 -8,4 C 1,0 C 78 % 78 % 1033,6 hPa 0,0 l/m 0,0 km/h (0 Bft) SW 225 -11,5 C -9,4 C 0,0 km/h (0 Bft)
07.03.2015 06:55 -8,5 C 1,0 C 78 % 78 % 1033,7 hPa 0,0 l/m 0,0 km/h (0 Bft) S-SW 202 -11,6 C -9,4 C 0,0 km/h (0 Bft)
07.03.2015 07:00 -8,1 C 1,0 C 78 % 78 % 1033,7 hPa 0,0 l/m 0,0 km/h (0 Bft) S-SW 202 -11,2 C -9,2 C 0,0 km/h (0 Bft)
07.03.2015 07:05 -7,9 C 1,0 C 78 % 78 % 1033,7 hPa 0,0 l/m 0,0 km/h (0 Bft) SW 225 -11,0 C -8,9 C 0,0 km/h (0 Bft)
07.03.2015 07:10 -7,8 C 1,0 C 78 % 78 % 1033,7 hPa 0,0 l/m 0,0 km/h (0 Bft) W-SW 247 -10,9 C -8,5 C 0,0 km/h (0 Bft)
07.03.2015 07:15 -7,9 C 1,0 C 78 % 78 % 1033,9 hPa 0,0 l/m 0,0 km/h (0 Bft) W-SW 247 -11,0 C -8,4 C 0,0 km/h (0 Bft)
07.03.2015 07:20 -7,6 C 1,0 C 78 % 78 % 1033,9 hPa 0,0 l/m 0,0 km/h (0 Bft) SW 225 -10,8 C -8,2 C 0,0 km/h (0 Bft)
07.03.2015 07:25 -7,3 C 1,0 C 78 % 78 % 1033,9 hPa 0,0 l/m 0,0 km/h (0 Bft) SW 225 -10,5 C -8,1 C 0,0 km/h (0 Bft)
07.03.2015 07:30 -7,2 C 1,0 C 78 % 78 % 1033,9 hPa 0,0 l/m 0,0 km/h (0 Bft) S 180 -10,4 C -7,9 C 0,0 km/h (0 Bft)
07.03.2015 07:35 -7,0 C 1,0 C 78 % 78 % 1033,7 hPa 0,0 l/m 0,0 km/h (0 Bft) W-SW 247 -10,2 C -7,8 C 0,0 km/h (0 Bft)
07.03.2015 07:40 -6,9 C 1,0 C 78 % 78 % 1033,7 hPa 0,0 l/m 0,0 km/h (0 Bft) SW 225 -10,1 C -7,7 C 0,0 km/h (0 Bft)
07.03.2015 07:45 -6,8 C 1,0 C 78 % 78 % 1033,7 hPa 0,0 l/m 0,0 km/h (0 Bft) S 180 -10,0 C -7,6 C 0,0 km/h (0 Bft)
07.03.2015 07:50 -6,7 C 1,0 C 78 % 78 % 1033,7 hPa 0,0 l/m 0,0 km/h (0 Bft) SW 225 -9,9 C -7,5 C 0,0 km/h (0 Bft)
07.03.2015 07:55 -6,6 C 1,0 C 78 % 78 % 1033,8 hPa 0,0 l/m 0,0 km/h (0 Bft) SW 225 -9,8 C -7,3 C 0,0 km/h (0 Bft)
07.03.2015 08:00 -6,5 C 1,0 C 78 % 78 % 1033,8 hPa 0,0 l/m 0,0 km/h (0 Bft) SW 225 -9,7 C -7,2 C 0,0 km/h (0 Bft)
07.03.2015 08:05 -6,3 C 1,0 C 78 % 78 % 1033,8 hPa 0,0 l/m 0,0 km/h (0 Bft) SW 225 -9,5 C -6,9 C 0,0 km/h (0 Bft)
07.03.2015 08:10 -6,0 C 1,0 C 78 % 78 % 1033,8 hPa 0,0 l/m 0,0 km/h (0 Bft) SW 225 -9,2 C -6,6 C 0,0 km/h (0 Bft)
07.03.2015 08:15 -5,8 C 1,0 C 79 % 79 % 1033,9 hPa 0,0 l/m 0,0 km/h (0 Bft) SW 225 -8,8 C -6,4 C 0,0 km/h (0 Bft)
07.03.2015 08:20 -5,6 C 1,0 C 79 % 79 % 1033,9 hPa 0,0 l/m 0,0 km/h (0 Bft) S-SW 202 -8,6 C -6,1 C 0,0 km/h (0 Bft)
07.03.2015 08:25 -5,4 C 1,0 C 79 % 79 % 1033,9 hPa 0,0 l/m 0,0 km/h (0 Bft) SW 225 -8,5 C -5,9 C 0,0 km/h (0 Bft)
07.03.2015 08:30 -5,0 C 1,0 C 79 % 79 % 1033,9 hPa 0,0 l/m 0,0 km/h (0 Bft) SW 225 -8,1 C -5,5 C 0,0 km/h (0 Bft)
07.03.2015 08:35 -4,9 C 1,0 C 79 % 79 % 1033,8 hPa 0,0 l/m 0,0 km/h (0 Bft) SW 225 -8,0 C -5,2 C 0,0 km/h (0 Bft)
07.03.2015 08:40 -4,5 C 1,0 C 79 % 79 % 1033,8 hPa 0,0 l/m 0,0 km/h (0 Bft) SO 135 -7,6 C -5,0 C 0,0 km/h (0 Bft)
07.03.2015 08:45 -4,3 C 0,9 C 79 % 79 % 1033,8 hPa 0,0 l/m 0,0 km/h (0 Bft) SO 135 -7,4 C -4,8 C 0,0 km/h (0 Bft)
07.03.2015 08:50 -3,9 C 0,9 C 79 % 79 % 1033,8 hPa 0,0 l/m 0,0 km/h (0 Bft) S-SO 157 -7,0 C -4,4 C 0,0 km/h (0 Bft)
07.03.2015 08:55 -3,7 C 0,9 C 79 % 79 % 1033,6 hPa 0,0 l/m 0,0 km/h (0 Bft) S-SO 157 -6,8 C -4,0 C 0,0 km/h (0 Bft)
07.03.2015 09:00 -2,9 C 0,9 C 80 % 80 % 1033,6 hPa 0,0 l/m 0,0 km/h (0 Bft) S-SO 157 -5,9 C -2,5 C 0,0 km/h (0 Bft)
07.03.2015 09:05 -2,5 C 1,0 C 79 % 79 % 1033,6 hPa 0,0 l/m 0,0 km/h (0 Bft) SO 135 -5,6 C -0,7 C 0,0 km/h (0 Bft)
07.03.2015 09:10 -1,6 C 1,0 C 79 % 79 % 1033,6 hPa 0,0 l/m 0,0 km/h (0 Bft) SO 135 -4,8 C 0,9 C 0,0 km/h (0 Bft)
07.03.2015 09:15 -1,1 C 1,0 C 80 % 80 % 1033,6 hPa 0,0 l/m 0,0 km/h (0 Bft) S 180 -4,1 C 1,4 C 0,0 km/h (0 Bft)
07.03.2015 09:20 0,2 C 1,0 C 80 % 80 % 1033,6 hPa 0,0 l/m 0,0 km/h (0 Bft) O 90 -2,8 C 2,9 C 0,0 km/h (0 Bft)
07.03.2015 09:25 0,7 C 1,0 C 80 % 80 % 1033,6 hPa 0,0 l/m 0,0 km/h (0 Bft) O-NO 67 -2,3 C 4,4 C 0,0 km/h (0 Bft)
07.03.2015 09:30 1,3 C 1,0 C 80 % 80 % 1033,6 hPa 0,0 l/m 0,0 km/h (0 Bft) O 90 -1,8 C 6,6 C 0,0 km/h (0 Bft)
07.03.2015 09:35 2,0 C 0,9 C 80 % 80 % 1033,9 hPa 0,0 l/m 0,0 km/h (0 Bft) S 180 -1,1 C 8,0 C 0,0 km/h (0 Bft)
07.03.2015 09:40 2,4 C 1,0 C 80 % 80 % 1033,9 hPa 0,0 l/m 0,0 km/h (0 Bft) SO 135 -0,7 C 8,3 C 0,0 km/h (0 Bft)
07.03.2015 09:45 2,7 C 1,0 C 80 % 80 % 1033,9 hPa 0,0 l/m 0,0 km/h (0 Bft) S-SW 202 -0,4 C 8,3 C 0,0 km/h (0 Bft)
07.03.2015 09:50 2,7 C 1,0 C 79 % 79 % 1033,9 hPa 0,0 l/m 0,0 km/h (0 Bft) S 180 -0,6 C 7,5 C 0,0 km/h (0 Bft)
07.03.2015 09:55 3,3 C 1,0 C 79 % 79 % 1034,8 hPa 0,0 l/m 0,0 km/h (0 Bft) O-SO 112 0,0 C 8,4 C 0,0 km/h (0 Bft)
07.03.2015 10:00 4,4 C 1,0 C 79 % 79 % 1034,8 hPa 0,0 l/m 0,0 km/h (0 Bft) O-NO 67 1,1 C 11,1 C 0,0 km/h (0 Bft)
07.03.2015 10:05 5,2 C 1,0 C 79 % 79 % 1034,8 hPa 0,0 l/m 0,0 km/h (0 Bft) NO 45 1,9 C 13,0 C 0,0 km/h (0 Bft)
07.03.2015 10:10 6,7 C 1,0 C 77 % 77 % 1034,8 hPa 0,0 l/m 0,0 km/h (0 Bft) N-NO 22 3,0 C 15,5 C 0,0 km/h (0 Bft)
07.03.2015 10:15 7,1 C 1,0 C 73 % 73 % 1035,1 hPa 0,0 l/m 0,5 km/h (0 Bft) O-NO 67 2,6 C 15,2 C 1,8 km/h (1 Bft)
07.03.2015 10:20 7,9 C 1,0 C 69 % 69 % 1035,1 hPa 0,0 l/m 0,6 km/h (0 Bft) O 90 2,6 C 15,1 C 0,0 km/h (0 Bft)
07.03.2015 10:25 8,4 C 1,0 C 66 % 66 % 1035,1 hPa 0,0 l/m 0,3 km/h (0 Bft) N-NO 22 2,4 C 15,8 C 0,0 km/h (0 Bft)
07.03.2015 10:30 8,7 C 1,0 C 64 % 64 % 1035,1 hPa 0,0 l/m 0,0 km/h (0 Bft) NO 45 2,3 C 16,2 C 0,0 km/h (0 Bft)
07.03.2015 10:35 9,5 C 1,0 C 63 % 63 % 1035,4 hPa 0,0 l/m 0,0 km/h (0 Bft) N-NO 22 2,8 C 16,6 C 0,0 km/h (0 Bft)
07.03.2015 10:40 9,9 C 1,0 C 60 % 60 % 1035,4 hPa 0,0 l/m 0,2 km/h (0 Bft) O-NO 67 2,5 C 17,1 C 2,3 km/h (1 Bft)
07.03.2015 10:45 10,0 C 1,0 C 58 % 58 % 1035,4 hPa 0,0 l/m 0,5 km/h (0 Bft) O-NO 67 2,1 C 16,4 C 0,0 km/h (0 Bft)
07.03.2015 10:50 10,8 C 0,9 C 58 % 58 % 1035,4 hPa 0,0 l/m 0,3 km/h (0 Bft) NO 45 2,9 C 16,8 C 0,0 km/h (0 Bft)
07.03.2015 10:55 10,5 C 1,0 C 56 % 56 % 1035,8 hPa 0,0 l/m 0,5 km/h (0 Bft) NO 45 2,1 C 16,8 C 0,0 km/h (0 Bft)
07.03.2015 11:00 10,6 C 1,0 C 55 % 55 % 1035,8 hPa 0,0 l/m 0,5 km/h (0 Bft) O-SO 112 1,9 C 16,6 C 0,0 km/h (0 Bft)
07.03.2015 11:05 11,2 C 1,0 C 53 % 53 % 1035,8 hPa 0,0 l/m 0,5 km/h (0 Bft) O-NO 67 2,0 C 16,6 C 1,8 km/h (1 Bft)
07.03.2015 11:10 11,3 C 1,0 C 52 % 52 % 1035,8 hPa 0,0 l/m 1,0 km/h (0 Bft) O-NO 67 1,8 C 16,6 C 0,0 km/h (0 Bft)
07.03.2015 11:15 11,8 C 1,0 C 51 % 51 % 1036,2 hPa 0,0 l/m 1,3 km/h (1 Bft) O 90 2,0 C 16,7 C 2,4 km/h (1 Bft)
07.03.2015 11:20 11,8 C 1,0 C 49 % 49 % 1036,2 hPa 0,0 l/m 1,4 km/h (1 Bft) N-NO 22 1,4 C 16,5 C 4,5 km/h (1 Bft)
07.03.2015 11:25 12,1 C 1,0 C 49 % 49 % 1036,2 hPa 0,0 l/m 1,4 km/h (1 Bft) O-NO 67 1,7 C 16,6 C 2,3 km/h (1 Bft)
07.03.2015 11:30 11,8 C 1,0 C 48 % 48 % 1036,2 hPa 0,0 l/m 1,6 km/h (1 Bft) O-NO 67 1,2 C 16,7 C 2,3 km/h (1 Bft)
07.03.2015 11:35 12,0 C 1,0 C 47 % 47 % 1036,6 hPa 0,0 l/m 2,1 km/h (1 Bft) NO 45 1,0 C 16,6 C 0,0 km/h (0 Bft)
07.03.2015 11:40 11,5 C 1,0 C 46 % 46 % 1036,6 hPa 0,0 l/m 2,3 km/h (1 Bft) O-NO 67 0,3 C 16,3 C 5,8 km/h (2 Bft)
07.03.2015 11:45 11,9 C 1,0 C 46 % 46 % 1036,6 hPa 0,0 l/m 2,3 km/h (1 Bft) N-NO 22 0,7 C 16,4 C 2,7 km/h (1 Bft)
07.03.2015 11:50 12,1 C 1,0 C 46 % 46 % 1036,6 hPa 0,0 l/m 1,8 km/h (1 Bft) O-SO 112 0,8 C 17,0 C 1,9 km/h (1 Bft)
07.03.2015 11:55 12,3 C 1,0 C 45 % 45 % 1036,9 hPa 0,0 l/m 1,8 km/h (1 Bft) NO 45 0,7 C 17,3 C 4,3 km/h (1 Bft)
07.03.2015 12:00 12,1 C 1,0 C 46 % 46 % 1036,9 hPa 0,0 l/m 1,9 km/h (1 Bft) N-NO 22 0,8 C 17,2 C 6,4 km/h (2 Bft)
07.03.2015 12:05 11,8 C 1,0 C 44 % 44 % 1036,9 hPa 0,0 l/m 2,4 km/h (1 Bft) NO 45 -0,0 C 17,3 C 3,2 km/h (1 Bft)
07.03.2015 12:10 12,4 C 1,0 C 45 % 45 % 1036,9 hPa 0,0 l/m 1,6 km/h (1 Bft) N-NO 22 0,8 C 18,1 C 3,4 km/h (1 Bft)
07.03.2015 12:15 12,2 C 1,0 C 45 % 45 % 1037,2 hPa 0,0 l/m 1,4 km/h (1 Bft) NO 45 0,6 C 18,1 C 3,1 km/h (1 Bft)
07.03.2015 12:20 11,1 C 1,0 C 43 % 43 % 1037,2 hPa 0,0 l/m 2,7 km/h (1 Bft) N-NO 22 -1,0 C 17,4 C 6,6 km/h (2 Bft)
07.03.2015 12:25 12,4 C 1,0 C 44 % 44 % 1037,2 hPa 0,0 l/m 2,4 km/h (1 Bft) N-NO 22 0,5 C 17,5 C 3,2 km/h (1 Bft)
07.03.2015 12:30 12,5 C 1,0 C 44 % 44 % 1037,2 hPa 0,0 l/m 1,4 km/h (1 Bft) NO 45 0,6 C 18,1 C 2,6 km/h (1 Bft)
07.03.2015 12:35 12,2 C 1,0 C 42 % 42 % 1037,0 hPa 0,0 l/m 1,8 km/h (1 Bft) NO 45 -0,3 C 18,1 C 4,8 km/h (1 Bft)
07.03.2015 12:40 11,9 C 1,0 C 42 % 42 % 1037,0 hPa 0,0 l/m 3,1 km/h (1 Bft) SO 135 -0,6 C 17,5 C 7,2 km/h (2 Bft)
07.03.2015 12:45 11,8 C 1,0 C 43 % 43 % 1037,0 hPa 0,0 l/m 2,7 km/h (1 Bft) NO 45 -0,4 C 17,3 C 0,0 km/h (0 Bft)
07.03.2015 12:50 12,1 C 1,0 C 42 % 42 % 1037,0 hPa 0,0 l/m 1,6 km/h (1 Bft) O-NO 67 -0,4 C 17,5 C 3,7 km/h (1 Bft)
07.03.2015 12:55 12,0 C 1,0 C 42 % 42 % 1036,6 hPa 0,0 l/m 1,6 km/h (1 Bft) N-NO 22 -0,5 C 17,5 C 2,4 km/h (1 Bft)
07.03.2015 13:00 12,8 C 1,0 C 43 % 43 % 1036,6 hPa 0,0 l/m 1,4 km/h (1 Bft) N-NO 22 0,5 C 18,4 C 2,9 km/h (1 Bft)
07.03.2015 13:05 12,7 C 1,0 C 42 % 42 % 1036,6 hPa 0,0 l/m 1,8 km/h (1 Bft) NO 45 0,1 C 18,4 C 3,2 km/h (1 Bft)
07.03.2015 13:10 11,5 C 1,0 C 42 % 42 % 1036,6 hPa 0,0 l/m 3,1 km/h (1 Bft) NO 45 -1,0 C 17,8 C 5,0 km/h (1 Bft)
07.03.2015 13:15 12,6 C 1,0 C 44 % 44 % 1036,2 hPa 0,0 l/m 2,7 km/h (1 Bft) O-NO 67 0,7 C 17,4 C 0,0 km/h (0 Bft)
07.03.2015 13:20 13,3 C 1,0 C 43 % 43 % 1036,2 hPa 0,0 l/m 1,8 km/h (1 Bft) O-NO 67 1,0 C 18,0 C 3,1 km/h (1 Bft)
07.03.2015 13:25 12,1 C 1,0 C 42 % 42 % 1036,2 hPa 0,0 l/m 1,9 km/h (1 Bft) O-NO 67 -0,4 C 17,5 C 2,9 km/h (1 Bft)
07.03.2015 13:30 12,8 C 1,0 C 43 % 43 % 1036,2 hPa 0,0 l/m 3,2 km/h (1 Bft) NO 45 0,5 C 16,3 C 2,4 km/h (1 Bft)
07.03.2015 13:35 13,3 C 1,0 C 43 % 43 % 1035,7 hPa 0,0 l/m 2,3 km/h (1 Bft) O-NO 67 1,0 C 15,6 C 3,2 km/h (1 Bft)
07.03.2015 13:40 12,4 C 1,0 C 42 % 42 % 1035,7 hPa 0,0 l/m 2,1 km/h (1 Bft) O-NO 67 -0,1 C 14,5 C 1,9 km/h (1 Bft)
07.03.2015 13:45 12,2 C 1,0 C 42 % 42 % 1035,7 hPa 0,0 l/m 2,6 km/h (1 Bft) O-NO 67 -0,3 C 13,8 C 4,0 km/h (1 Bft)
07.03.2015 13:50 11,7 C 1,0 C 42 % 42 % 1035,7 hPa 0,0 l/m 2,7 km/h (1 Bft) NO 45 -0,8 C 12,6 C 8,2 km/h (2 Bft)
07.03.2015 13:55 12,0 C 1,0 C 42 % 42 % 1035,4 hPa 0,0 l/m 2,9 km/h (1 Bft) NO 45 -0,5 C 12,4 C 4,8 km/h (1 Bft)
07.03.2015 14:00 11,6 C 1,0 C 42 % 42 % 1035,4 hPa 0,0 l/m 3,2 km/h (1 Bft) N-NO 22 -0,9 C 12,6 C 2,9 km/h (1 Bft)
07.03.2015 14:05 12,2 C 1,0 C 42 % 42 % 1035,4 hPa 0,0 l/m 3,4 km/h (1 Bft) NO 45 -0,3 C 13,1 C 5,5 km/h (1 Bft)
07.03.2015 14:10 13,4 C 1,0 C 43 % 43 % 1035,4 hPa 0,0 l/m 2,3 km/h (1 Bft) N-NO 22 1,1 C 14,6 C 2,1 km/h (1 Bft)
07.03.2015 14:15 12,9 C 1,0 C 42 % 42 % 1034,8 hPa 0,0 l/m 1,8 km/h (1 Bft) NO 45 0,3 C 15,8 C 3,1 km/h (1 Bft)
07.03.2015 14:20 13,1 C 1,0 C 42 % 42 % 1034,8 hPa 0,0 l/m 1,3 km/h (1 Bft) N-NO 22 0,5 C 16,9 C 0,0 km/h (0 Bft)
07.03.2015 14:25 13,4 C 1,0 C 42 % 42 % 1034,8 hPa 0,0 l/m 1,1 km/h (1 Bft) O-SO 112 0,8 C 17,8 C 2,9 km/h (1 Bft)
07.03.2015 14:30 13,3 C 1,0 C 42 % 42 % 1034,8 hPa 0,0 l/m 0,8 km/h (0 Bft) N-NO 22 0,7 C 17,9 C 3,4 km/h (1 Bft)
07.03.2015 14:35 13,2 C 1,0 C 43 % 43 % 1034,2 hPa 0,0 l/m 1,1 km/h (1 Bft) NO 45 0,9 C 17,9 C 0,0 km/h (0 Bft)
07.03.2015 14:40 12,1 C 1,0 C 42 % 42 % 1034,2 hPa 0,0 l/m 2,4 km/h (1 Bft) N-NO 22 -0,4 C 17,4 C 3,4 km/h (1 Bft)
07.03.2015 14:45 11,8 C 1,0 C 42 % 42 % 1034,2 hPa 0,0 l/m 2,7 km/h (1 Bft) N-NO 22 -0,7 C 17,0 C 3,2 km/h (1 Bft)
07.03.2015 14:50 12,1 C 1,0 C 42 % 42 % 1034,2 hPa 0,0 l/m 2,1 km/h (1 Bft) N-NO 22 -0,4 C 16,2 C 3,4 km/h (1 Bft)
07.03.2015 14:55 12,9 C 1,0 C 42 % 42 % 1033,6 hPa 0,0 l/m 1,4 km/h (1 Bft) NO 45 0,3 C 16,5 C 2,3 km/h (1 Bft)
07.03.2015 15:00 12,7 C 1,0 C 42 % 42 % 1033,6 hPa 0,0 l/m 1,4 km/h (1 Bft) NO 45 0,1 C 16,6 C 2,6 km/h (1 Bft)
07.03.2015 15:05 12,7 C 1,0 C 42 % 42 % 1033,6 hPa 0,0 l/m 1,9 km/h (1 Bft) O 90 0,1 C 16,4 C 3,1 km/h (1 Bft)
07.03.2015 15:10 12,7 C 0,9 C 42 % 42 % 1033,6 hPa 0,0 l/m 1,3 km/h (1 Bft) N-NO 22 0,1 C 16,5 C 3,9 km/h (1 Bft)
07.03.2015 15:15 12,1 C 0,9 C 42 % 42 % 1033,2 hPa 0,0 l/m 1,4 km/h (1 Bft) O-NO 67 -0,4 C 16,6 C 6,6 km/h (2 Bft)
07.03.2015 15:20 12,6 C 0,9 C 43 % 43 % 1033,2 hPa 0,0 l/m 1,6 km/h (1 Bft) NO 45 0,4 C 16,2 C 0,0 km/h (0 Bft)
07.03.2015 15:25 12,4 C 0,9 C 43 % 43 % 1033,2 hPa 0,0 l/m 1,3 km/h (1 Bft) O-NO 67 0,2 C 16,3 C 0,0 km/h (0 Bft)
07.03.2015 15:30 11,5 C 0,9 C 42 % 42 % 1033,2 hPa 0,0 l/m 1,1 km/h (1 Bft) O-NO 67 -1,0 C 16,7 C 4,2 km/h (1 Bft)
07.03.2015 15:35 11,2 C 0,9 C 43 % 43 % 1032,9 hPa 0,0 l/m 2,1 km/h (1 Bft) NO 45 -0,9 C 16,2 C 3,2 km/h (1 Bft)
07.03.2015 15:40 10,8 C 0,9 C 43 % 43 % 1032,9 hPa 0,0 l/m 2,1 km/h (1 Bft) N-NO 22 -1,3 C 15,3 C 0,0 km/h (0 Bft)
07.03.2015 15:45 10,4 C 1,0 C 44 % 44 % 1032,9 hPa 0,0 l/m 1,8 km/h (1 Bft) O-NO 67 -1,3 C 14,7 C 3,4 km/h (1 Bft)
07.03.2015 15:50 10,0 C 1,0 C 44 % 44 % 1032,9 hPa 0,0 l/m 1,3 km/h (1 Bft) NO 45 -1,7 C 13,0 C 0,0 km/h (0 Bft)
07.03.2015 15:55 9,7 C 1,0 C 45 % 45 % 1032,4 hPa 0,0 l/m 0,8 km/h (0 Bft) O-NO 67 -1,6 C 12,5 C 0,0 km/h (0 Bft)
07.03.2015 16:00 8,8 C 1,0 C 46 % 46 % 1032,4 hPa 0,0 l/m 0,5 km/h (0 Bft) N-NO 22 -2,2 C 10,9 C 0,0 km/h (0 Bft)
07.03.2015 16:05 8,6 C 1,0 C 46 % 46 % 1032,4 hPa 0,0 l/m 0,8 km/h (0 Bft) N-NO 22 -2,4 C 10,1 C 3,2 km/h (1 Bft)
07.03.2015 16:10 8,3 C 0,9 C 46 % 46 % 1032,4 hPa 0,0 l/m 0,6 km/h (0 Bft) O-NO 67 -2,6 C 9,2 C 0,0 km/h (0 Bft)
07.03.2015 16:15 8,2 C 0,9 C 47 % 47 % 1032,3 hPa 0,0 l/m 0,3 km/h (0 Bft) NO 45 -2,4 C 8,7 C 0,0 km/h (0 Bft)
07.03.2015 16:20 8,4 C 0,9 C 47 % 47 % 1032,3 hPa 0,0 l/m 0,6 km/h (0 Bft) O-SO 112 -2,2 C 9,9 C 3,1 km/h (1 Bft)
07.03.2015 16:25 8,2 C 0,9 C 46 % 46 % 1032,3 hPa 0,0 l/m 1,0 km/h (0 Bft) NO 45 -2,7 C 10,3 C 4,2 km/h (1 Bft)
07.03.2015 16:30 7,9 C 0,9 C 46 % 46 % 1032,3 hPa 0,0 l/m 1,4 km/h (1 Bft) O-NO 67 -3,0 C 9,7 C 0,0 km/h (0 Bft)
07.03.2015 16:35 8,0 C 0,9 C 46 % 46 % 1031,9 hPa 0,0 l/m 0,8 km/h (0 Bft) N-NO 22 -2,9 C 9,7 C 0,0 km/h (0 Bft)
07.03.2015 16:40 8,0 C 0,9 C 46 % 46 % 1031,9 hPa 0,0 l/m 0,2 km/h (0 Bft) O-SO 112 -2,9 C 10,4 C 0,0 km/h (0 Bft)
07.03.2015 16:45 8,3 C 0,9 C 46 % 46 % 1031,9 hPa 0,0 l/m 0,2 km/h (0 Bft) O-SO 112 -2,6 C 10,3 C 0,0 km/h (0 Bft)
07.03.2015 16:50 7,5 C 0,9 C 46 % 46 % 1031,9 hPa 0,0 l/m 0,3 km/h (0 Bft) O-SO 112 -3,4 C 9,7 C 0,0 km/h (0 Bft)
07.03.2015 16:55 7,2 C 1,0 C 46 % 46 % 1031,8 hPa 0,0 l/m 0,5 km/h (0 Bft) O-SO 112 -3,6 C 9,1 C 1,6 km/h (1 Bft)
07.03.2015 17:00 6,9 C 1,0 C 46 % 46 % 1031,8 hPa 0,0 l/m 0,3 km/h (0 Bft) SO 135 -3,9 C 7,8 C 2,1 km/h (1 Bft)
07.03.2015 17:05 6,7 C 1,0 C 46 % 46 % 1031,8 hPa 0,0 l/m 0,5 km/h (0 Bft) SO 135 -4,1 C 7,4 C 0,0 km/h (0 Bft)
07.03.2015 17:10 6,6 C 1,0 C 46 % 46 % 1031,8 hPa 0,0 l/m 0,8 km/h (0 Bft) SO 135 -4,2 C 7,2 C 2,4 km/h (1 Bft)
07.03.2015 17:15 6,5 C 1,0 C 46 % 46 % 1031,9 hPa 0,0 l/m 0,8 km/h (0 Bft) SO 135 -4,3 C 6,9 C 1,8 km/h (1 Bft)
07.03.2015 17:20 6,1 C 1,0 C 46 % 46 % 1031,9 hPa 0,0 l/m 1,0 km/h (0 Bft) SO 135 -4,6 C 6,4 C 1,8 km/h (1 Bft)
07.03.2015 17:25 6,2 C 1,0 C 47 % 47 % 1031,9 hPa 0,0 l/m 1,0 km/h (0 Bft) SO 135 -4,3 C 6,2 C 2,6 km/h (1 Bft)
07.03.2015 17:30 6,2 C 1,0 C 47 % 47 % 1031,9 hPa 0,0 l/m 1,4 km/h (1 Bft) SO 135 -4,3 C 6,0 C 1,8 km/h (1 Bft)
07.03.2015 17:35 5,9 C 1,0 C 48 % 48 % 1031,8 hPa 0,0 l/m 1,8 km/h (1 Bft) S-SO 157 -4,3 C 5,7 C 1,9 km/h (1 Bft)
07.03.2015 17:40 5,4 C 1,0 C 48 % 48 % 1031,8 hPa 0,0 l/m 1,3 km/h (1 Bft) SO 135 -4,7 C 5,2 C 2,6 km/h (1 Bft)
07.03.2015 17:45 5,3 C 1,0 C 48 % 48 % 1031,8 hPa 0,0 l/m 1,6 km/h (1 Bft) SO 135 -4,8 C 4,9 C 2,7 km/h (1 Bft)
07.03.2015 17:50 5,0 C 1,0 C 49 % 49 % 1031,8 hPa 0,0 l/m 1,9 km/h (1 Bft) SO 135 -4,8 C 4,5 C 2,4 km/h (1 Bft)
07.03.2015 17:55 4,9 C 0,9 C 49 % 49 % 1031,9 hPa 0,0 l/m 1,8 km/h (1 Bft) SO 135 -4,9 C 4,3 C 2,3 km/h (1 Bft)
07.03.2015 18:00 4,7 C 0,9 C 50 % 50 % 1031,9 hPa 0,0 l/m 1,9 km/h (1 Bft) SO 135 -4,8 C 4,0 C 2,4 km/h (1 Bft)
07.03.2015 18:05 4,6 C 0,9 C 51 % 51 % 1031,9 hPa 0,0 l/m 2,3 km/h (1 Bft) SO 135 -4,6 C 3,8 C 2,6 km/h (1 Bft)
07.03.2015 18:10 4,3 C 0,9 C 52 % 52 % 1031,9 hPa 0,0 l/m 2,6 km/h (1 Bft) SO 135 -4,7 C 3,5 C 2,9 km/h (1 Bft)
07.03.2015 18:15 4,1 C 0,9 C 53 % 53 % 1032,1 hPa 0,0 l/m 2,6 km/h (1 Bft) SO 135 -4,6 C 3,4 C 2,4 km/h (1 Bft)
07.03.2015 18:20 3,8 C 0,9 C 53 % 53 % 1032,1 hPa 0,0 l/m 2,1 km/h (1 Bft) SO 135 -4,9 C 3,0 C 2,3 km/h (1 Bft)
07.03.2015 18:25 3,2 C 0,9 C 53 % 53 % 1032,1 hPa 0,0 l/m 1,3 km/h (1 Bft) S 180 -5,4 C 2,8 C 0,0 km/h (0 Bft)
07.03.2015 18:30 2,0 C 0,9 C 54 % 54 % 1032,1 hPa 0,0 l/m 0,2 km/h (0 Bft) S 180 -6,3 C 1,6 C 0,0 km/h (0 Bft)
07.03.2015 18:35 1,8 C 0,9 C 55 % 55 % 1032,1 hPa 0,0 l/m 0,0 km/h (0 Bft) S 180 -6,3 C 1,0 C 0,0 km/h (0 Bft)
07.03.2015 18:40 1,6 C 0,9 C 56 % 56 % 1032,1 hPa 0,0 l/m 0,0 km/h (0 Bft) S 180 -6,2 C 0,3 C 0,0 km/h (0 Bft)
07.03.2015 18:45 1,6 C 0,9 C 56 % 56 % 1032,1 hPa 0,0 l/m 0,0 km/h (0 Bft) S 180 -6,2 C 0,0 C 0,0 km/h (0 Bft)
07.03.2015 18:50 1,9 C 0,9 C 57 % 57 % 1032,1 hPa 0,0 l/m 1,0 km/h (0 Bft) SO 135 -5,7 C -0,1 C 3,1 km/h (1 Bft)
07.03.2015 18:55 2,1 C 0,9 C 57 % 57 % 1032,1 hPa 0,0 l/m 1,9 km/h (1 Bft) SO 135 -5,5 C 0,4 C 1,8 km/h (1 Bft)
07.03.2015 19:00 1,1 C 0,9 C 57 % 57 % 1032,1 hPa 0,0 l/m 1,3 km/h (1 Bft) S-SO 157 -6,4 C 0,3 C 0,0 km/h (0 Bft)
07.03.2015 19:05 1,3 C 1,0 C 58 % 58 % 1032,1 hPa 0,0 l/m 0,5 km/h (0 Bft) O-SO 112 -6,0 C -0,1 C 1,9 km/h (1 Bft)
07.03.2015 19:10 0,9 C 1,0 C 58 % 58 % 1032,1 hPa 0,0 l/m 0,3 km/h (0 Bft) O-SO 112 -6,4 C -0,3 C 0,0 km/h (0 Bft)
07.03.2015 19:15 0,2 C 1,0 C 58 % 58 % 1032,1 hPa 0,0 l/m 0,2 km/h (0 Bft) O-SO 112 -7,1 C -0,8 C 0,0 km/h (0 Bft)
07.03.2015 19:20 0,0 C 1,0 C 59 % 59 % 1032,1 hPa 0,0 l/m 0,0 km/h (0 Bft) O-SO 112 -7,0 C -1,6 C 0,0 km/h (0 Bft)
07.03.2015 19:25 0,3 C 1,0 C 61 % 61 % 1032,1 hPa 0,0 l/m 0,0 km/h (0 Bft) SO 135 -6,3 C -1,6 C 0,0 km/h (0 Bft)
07.03.2015 19:30 0,4 C 1,0 C 62 % 62 % 1032,1 hPa 0,0 l/m 0,2 km/h (0 Bft) SO 135 -6,0 C -1,4 C 0,0 km/h (0 Bft)
07.03.2015 19:35 0,0 C 1,0 C 61 % 61 % 1032,1 hPa 0,0 l/m 0,2 km/h (0 Bft) O-SO 112 -6,6 C -1,5 C 0,0 km/h (0 Bft)
07.03.2015 19:40 -0,9 C 0,9 C 62 % 62 % 1032,1 hPa 0,0 l/m 0,0 km/h (0 Bft) O-SO 112 -7,2 C -2,1 C 0,0 km/h (0 Bft)
07.03.2015 19:45 -1,0 C 0,9 C 63 % 63 % 1032,1 hPa 0,0 l/m 0,0 km/h (0 Bft) SO 135 -7,1 C -2,4 C 0,0 km/h (0 Bft)
07.03.2015 19:50 -0,9 C 0,9 C 64 % 64 % 1032,1 hPa 0,0 l/m 0,0 km/h (0 Bft) O-SO 112 -6,8 C -2,5 C 0,0 km/h (0 Bft)
07.03.2015 19:55 -1,2 C 0,9 C 64 % 64 % 1031,9 hPa 0,0 l/m 0,0 km/h (0 Bft) O-SO 112 -7,1 C -2,6 C 0,0 km/h (0 Bft)
07.03.2015 20:00 -1,6 C 0,9 C 64 % 64 % 1031,9 hPa 0,0 l/m 0,0 km/h (0 Bft) O-SO 112 -7,5 C -3,0 C 0,0 km/h (0 Bft)
07.03.2015 20:05 -1,7 C 0,9 C 65 % 65 % 1031,9 hPa 0,0 l/m 0,0 km/h (0 Bft) O-SO 112 -7,4 C -3,1 C 0,0 km/h (0 Bft)
07.03.2015 20:10 -1,7 C 0,9 C 66 % 66 % 1031,9 hPa 0,0 l/m 0,0 km/h (0 Bft) O-SO 112 -7,2 C -3,1 C 0,0 km/h (0 Bft)
07.03.2015 20:15 -2,0 C 0,9 C 66 % 66 % 1032,0 hPa 0,0 l/m 0,0 km/h (0 Bft) O-SO 112 -7,5 C -3,3 C 0,0 km/h (0 Bft)
07.03.2015 20:20 -2,2 C 0,9 C 67 % 67 % 1032,0 hPa 0,0 l/m 0,0 km/h (0 Bft) O-SO 112 -7,5 C -3,6 C 0,0 km/h (0 Bft)
07.03.2015 20:25 -2,3 C 0,9 C 67 % 67 % 1032,0 hPa 0,0 l/m 0,0 km/h (0 Bft) O-SO 112 -7,6 C -3,7 C 0,0 km/h (0 Bft)
07.03.2015 20:30 -2,5 C 0,9 C 68 % 68 % 1032,0 hPa 0,0 l/m 0,0 km/h (0 Bft) O-SO 112 -7,6 C -3,9 C 0,0 km/h (0 Bft)
07.03.2015 20:35 -2,4 C 0,9 C 68 % 68 % 1031,9 hPa 0,0 l/m 0,0 km/h (0 Bft) O-SO 112 -7,5 C -4,0 C 0,0 km/h (0 Bft)
07.03.2015 20:40 -2,5 C 0,9 C 68 % 68 % 1031,9 hPa 0,0 l/m 0,0 km/h (0 Bft) O-SO 112 -7,6 C -4,1 C 0,0 km/h (0 Bft)
07.03.2015 20:45 -2,8 C 0,9 C 68 % 68 % 1031,9 hPa 0,0 l/m 0,0 km/h (0 Bft) O-SO 112 -7,9 C -4,3 C 0,0 km/h (0 Bft)
07.03.2015 20:50 -2,7 C 0,9 C 69 % 69 % 1031,9 hPa 0,0 l/m 0,0 km/h (0 Bft) O-SO 112 -7,6 C -4,2 C 0,0 km/h (0 Bft)
07.03.2015 20:55 -2,9 C 0,9 C 69 % 69 % 1031,6 hPa 0,0 l/m 0,0 km/h (0 Bft) O-SO 112 -7,8 C -4,2 C 0,0 km/h (0 Bft)
07.03.2015 21:00 -2,9 C 0,9 C 70 % 70 % 1031,6 hPa 0,0 l/m 0,0 km/h (0 Bft) O-SO 112 -7,6 C -4,2 C 0,0 km/h (0 Bft)
07.03.2015 21:05 -2,9 C 0,9 C 70 % 70 % 1031,6 hPa 0,0 l/m 0,0 km/h (0 Bft) O-SO 112 -7,6 C -4,3 C 0,0 km/h (0 Bft)
07.03.2015 21:10 -3,2 C 0,9 C 71 % 71 % 1031,6 hPa 0,0 l/m 0,0 km/h (0 Bft) O-SO 112 -7,7 C -4,4 C 0,0 km/h (0 Bft)
07.03.2015 21:15 -3,2 C 0,9 C 71 % 71 % 1031,5 hPa 0,0 l/m 0,0 km/h (0 Bft) O-SO 112 -7,7 C -4,5 C 0,0 km/h (0 Bft)
07.03.2015 21:20 -3,3 C 0,9 C 71 % 71 % 1031,5 hPa 0,0 l/m 0,0 km/h (0 Bft) O-SO 112 -7,8 C -4,5 C 0,0 km/h (0 Bft)
07.03.2015 21:25 -3,3 C 0,9 C 72 % 72 % 1031,5 hPa 0,0 l/m 0,0 km/h (0 Bft) O-SO 112 -7,6 C -4,4 C 0,0 km/h (0 Bft)
07.03.2015 21:30 -3,3 C 0,9 C 72 % 72 % 1031,5 hPa 0,0 l/m 0,0 km/h (0 Bft) O-SO 112 -7,6 C -4,5 C 0,0 km/h (0 Bft)
07.03.2015 21:35 -3,3 C 0,9 C 73 % 73 % 1031,4 hPa 0,0 l/m 0,0 km/h (0 Bft) O-SO 112 -7,4 C -4,4 C 0,0 km/h (0 Bft)
07.03.2015 21:40 -3,3 C 0,9 C 73 % 73 % 1031,4 hPa 0,0 l/m 0,0 km/h (0 Bft) O-SO 112 -7,4 C -4,4 C 0,0 km/h (0 Bft)
07.03.2015 21:45 -3,3 C 0,9 C 73 % 73 % 1031,4 hPa 0,0 l/m 0,0 km/h (0 Bft) O-SO 112 -7,4 C -4,4 C 0,0 km/h (0 Bft)
07.03.2015 21:50 -3,3 C 0,9 C 74 % 74 % 1031,4 hPa 0,0 l/m 0,0 km/h (0 Bft) O-SO 112 -7,3 C -4,5 C 0,0 km/h (0 Bft)
07.03.2015 21:55 -3,3 C 0,9 C 74 % 74 % 1031,1 hPa 0,0 l/m 0,0 km/h (0 Bft) SO 135 -7,3 C -4,5 C 0,0 km/h (0 Bft)
07.03.2015 22:00 -3,5 C 0,9 C 74 % 74 % 1031,1 hPa 0,0 l/m 0,0 km/h (0 Bft) SO 135 -7,4 C -4,5 C 0,0 km/h (0 Bft)
07.03.2015 22:05 -3,6 C 0,9 C 74 % 74 % 1031,1 hPa 0,0 l/m 0,0 km/h (0 Bft) O 90 -7,5 C -4,6 C 0,0 km/h (0 Bft)
07.03.2015 22:10 -3,6 C 0,9 C 74 % 74 % 1031,1 hPa 0,0 l/m 0,0 km/h (0 Bft) O 90 -7,5 C -4,6 C 0,0 km/h (0 Bft)
07.03.2015 22:15 -3,6 C 0,9 C 75 % 75 % 1031,1 hPa 0,0 l/m 0,0 km/h (0 Bft) O 90 -7,4 C -4,5 C 0,0 km/h (0 Bft)
07.03.2015 22:20 -3,7 C 0,9 C 75 % 75 % 1031,1 hPa 0,0 l/m 0,0 km/h (0 Bft) O 90 -7,5 C -4,6 C 0,0 km/h (0 Bft)
07.03.2015 22:25 -3,7 C 0,9 C 75 % 75 % 1031,1 hPa 0,0 l/m 0,0 km/h (0 Bft) O 90 -7,5 C -4,7 C 0,0 km/h (0 Bft)
07.03.2015 22:30 -3,8 C 0,9 C 75 % 75 % 1031,1 hPa 0,0 l/m 0,0 km/h (0 Bft) SO 135 -7,6 C -4,9 C 0,0 km/h (0 Bft)
07.03.2015 22:35 -3,8 C 0,9 C 75 % 75 % 1030,9 hPa 0,0 l/m 0,0 km/h (0 Bft) SO 135 -7,6 C -5,0 C 0,0 km/h (0 Bft)
07.03.2015 22:40 -3,8 C 0,9 C 76 % 76 % 1030,9 hPa 0,0 l/m 0,0 km/h (0 Bft) SO 135 -7,4 C -4,9 C 0,0 km/h (0 Bft)
07.03.2015 22:45 -4,0 C 0,9 C 76 % 76 % 1030,9 hPa 0,0 l/m 0,0 km/h (0 Bft) SO 135 -7,6 C -4,9 C 0,0 km/h (0 Bft)
07.03.2015 22:50 -4,1 C 0,9 C 76 % 76 % 1030,9 hPa 0,0 l/m 0,0 km/h (0 Bft) SO 135 -7,7 C -5,0 C 0,0 km/h (0 Bft)
07.03.2015 22:55 -3,9 C 0,9 C 76 % 76 % 1030,9 hPa 0,0 l/m 0,0 km/h (0 Bft) SO 135 -7,5 C -5,0 C 0,0 km/h (0 Bft)
07.03.2015 23:00 -4,0 C 0,9 C 76 % 76 % 1030,9 hPa 0,0 l/m 0,0 km/h (0 Bft) S-SO 157 -7,6 C -5,0 C 0,0 km/h (0 Bft)
07.03.2015 23:05 -4,1 C 0,9 C 76 % 76 % 1030,9 hPa 0,0 l/m 0,0 km/h (0 Bft) SO 135 -7,7 C -5,1 C 0,0 km/h (0 Bft)
07.03.2015 23:10 -4,3 C 0,9 C 76 % 76 % 1030,9 hPa 0,0 l/m 0,0 km/h (0 Bft) SO 135 -7,9 C -5,2 C 0,0 km/h (0 Bft)
07.03.2015 23:15 -4,1 C 1,0 C 76 % 76 % 1030,8 hPa 0,0 l/m 0,0 km/h (0 Bft) SO 135 -7,7 C -5,2 C 0,0 km/h (0 Bft)
07.03.2015 23:20 -4,4 C 1,0 C 76 % 76 % 1030,8 hPa 0,0 l/m 0,0 km/h (0 Bft) SO 135 -8,0 C -5,2 C 0,0 km/h (0 Bft)
07.03.2015 23:25 -4,5 C 1,0 C 76 % 76 % 1030,8 hPa 0,0 l/m 0,0 km/h (0 Bft) S-SO 157 -8,1 C -5,3 C 0,0 km/h (0 Bft)
07.03.2015 23:30 -4,4 C 1,0 C 77 % 77 % 1030,8 hPa 0,0 l/m 0,0 km/h (0 Bft) SO 135 -7,8 C -5,3 C 0,0 km/h (0 Bft)
07.03.2015 23:35 -4,4 C 1,0 C 77 % 77 % 1030,8 hPa 0,0 l/m 0,0 km/h (0 Bft) S-SO 157 -7,8 C -5,3 C 0,0 km/h (0 Bft)
07.03.2015 23:40 -4,3 C 1,0 C 77 % 77 % 1030,8 hPa 0,0 l/m 0,0 km/h (0 Bft) S-SO 157 -7,7 C -5,3 C 0,0 km/h (0 Bft)
07.03.2015 23:45 -4,3 C 1,0 C 77 % 77 % 1030,8 hPa 0,0 l/m 0,0 km/h (0 Bft) SO 135 -7,7 C -5,3 C 0,0 km/h (0 Bft)
07.03.2015 23:50 -4,4 C 1,0 C 77 % 77 % 1030,8 hPa 0,0 l/m 0,0 km/h (0 Bft) SO 135 -7,8 C -5,4 C 0,0 km/h (0 Bft)
07.03.2015 23:55 -4,3 C 1,0 C 77 % 77 % 1030,8 hPa 0,0 l/m 0,0 km/h (0 Bft) SO 135 -7,7 C -5,3 C 0,0 km/h (0 Bft)
_ Min-Zeit 06:55 23:10 15:30 15:30 23:55 - 23:55 - - 06:55 06:55 23:55
Minimum _ -8,5 C 0,9 C 42 % 42 % 1030,8 hPa - 0,0 km/h (0 Bft) - - -11,6 C -9,4 C 0,0 km/h (0 Bft)
_ Max-Zeit 14:25 03:10 09:45 09:45 12:30 23:55 14:05 - - 10:10 13:05 13:50
Maximum _ 13,4 C 1,1 C 80 % 80 % 1037,2 hPa 0,0 l/m 3,4 km/h
NO (1 Bft)
- - 3,0 C 18,4 C 8,2 km/h
NO (2 Bft)
Durchschnitt _ 0,4 C 1,0 C 65 % 65 % 1033,6 hPa #0,0 l/m 0,6 km/h (0 Bft) NO - -5,9 C 1,2 C 0,8 km/h (0 Bft)